Simultaneous Nadir Overpasses (SNOs) Predictions

Prediction of SNOs between METOP-B and TERRA Satellite Orbit:

Table of predicted SNOs for the next 14.0 days since TLE Epoch: 5/12/2017
Index Date (METOP-B) Time (METOP-B) Lat,Lon (METOP-B) SZA (METOP-B ) Date (TERRA) Time (TERRA) Lat,Lon (TERRA) SZA (TERRA ) Distance(km) Time Diff (sec)
1 05/15/2017 12:01:17 -81.33,-132.74 114.61 05/15/2017 12:02:13 -81.33,-132.69 114.58 0.80 56
2 05/15/2017 12:51:56 81.34, 35.14 65.45 05/15/2017 12:51:39 81.34, 35.12 65.44 0.49 17
3 05/18/2017 07:35:38 -81.33, -66.18 115.23 05/18/2017 07:36:28 -81.33, -66.20 115.21 0.37 50
4 05/18/2017 08:26:17 81.34, 101.69 64.83 05/18/2017 08:25:54 81.34, 101.58 64.81 1.87 23
5 05/21/2017 03:09:59 -81.33, 0.36 115.81 05/21/2017 03:10:43 -81.33, 0.24 115.80 1.95 44
6 05/21/2017 04:00:39 81.33, 167.82 64.21 05/21/2017 04:00:09 81.34, 167.99 64.22 2.83 30
7 05/23/2017 22:44:20 -81.33, 66.49 116.39 05/23/2017 22:44:57 -81.33, 66.64 116.35 2.57 37
8 05/23/2017 23:34:59 81.34,-125.66 63.67 05/23/2017 23:34:23 81.33,-125.64 63.66 0.40 36
9 05/26/2017 18:18:41 -81.33, 132.99 116.88 05/26/2017 18:19:12 -81.32, 133.00 116.87 0.55 31




NCC Satellite Simultaneous Nadir Overpasses (SNOs) Prediction Service
